Previsão horária em Bolshie Iodkovichi

Hoje, 8 Março, Segunda-feira

Tempo Temperatura Precipitação Vento Pressão Humidade
00:00 -6°C° 0 mm 5 m/s 747 mmHg 83%
01:00 -6°C° 0 mm 5 m/s 747 mmHg 82%
02:00 -7°C° 0 mm 5 m/s 747 mmHg 82%
03:00 -7°C° 0 mm 5 m/s 747 mmHg 81%
04:00 -7°C° 0 mm 5 m/s 747 mmHg 80%
05:00 -8°C° 0 mm 6 m/s 747 mmHg 79%
06:00 -6°C° 0.1 mm 6 m/s 747 mmHg 81%
07:00 -6°C° 0.1 mm 6 m/s 748 mmHg 84%
08:00 -6°C° 0.1 mm 6 m/s 748 mmHg 86%
09:00 -6°C° 0.1 mm 6 m/s 748 mmHg 79%
10:00 -5°C° 0.1 mm 6 m/s 749 mmHg 72%
11:00 -5°C° 0.1 mm 5 m/s 749 mmHg 65%
12:00 -4°C° 0 mm 5 m/s 750 mmHg 66%
13:00 -4°C° 0 mm 5 m/s 750 mmHg 66%
14:00 -4°C° 0 mm 5 m/s 750 mmHg 66%
15:00 -4°C° 0 mm 5 m/s 750 mmHg 68%
16:00 -3°C° 0 mm 4 m/s 751 mmHg 70%
17:00 -3°C° 0 mm 4 m/s 751 mmHg 71%
18:00 -4°C° 0 mm 4 m/s 751 mmHg 76%
19:00 -4°C° 0 mm 3 m/s 752 mmHg 80%
20:00 -5°C° 0 mm 3 m/s 752 mmHg 85%
21:00 -6°C° 0 mm 3 m/s 753 mmHg 86%
22:00 -5°C° 0 mm 2 m/s 753 mmHg 87%
23:00 -5°C° 0 mm 2 m/s 753 mmHg 87%

Amanhã, 9 Março, Terça-feira

Tempo Temperatura Precipitação Vento Pressão Humidade
00:00 -6°C° 0 mm 2 m/s 754 mmHg 88%
01:00 -6°C° 0 mm 2 m/s 754 mmHg 88%
02:00 -6°C° 0 mm 2 m/s 754 mmHg 88%
03:00 -7°C° 0 mm 2 m/s 754 mmHg 89%
04:00 -7°C° 0 mm 2 m/s 754 mmHg 89%
05:00 -7°C° 0 mm 2 m/s 754 mmHg 90%
06:00 -6°C° 0 mm 1 m/s 755 mmHg 89%
07:00 -6°C° 0 mm 1 m/s 755 mmHg 88%
08:00 -6°C° 0 mm 1 m/s 755 mmHg 87%
09:00 -4°C° 0 mm 1 m/s 756 mmHg 81%
10:00 -3°C° 0 mm 1 m/s 756 mmHg 75%
11:00 -3°C° 0 mm 0 m/s 756 mmHg 69%
12:00 -3°C° 0 mm 0 m/s 756 mmHg 66%
13:00 -3°C° 0 mm 0 m/s 756 mmHg 63%
14:00 -1°C° 0 mm 1 m/s 756 mmHg 60%
15:00 -1°C° 0 mm 1 m/s 756 mmHg 61%
16:00 -1°C° 0 mm 1 m/s 756 mmHg 61%
17:00 -1°C° 0 mm 1 m/s 755 mmHg 62%
18:00 -2°C° 0 mm 1 m/s 755 mmHg 65%
19:00 -2°C° 0 mm 1 m/s 756 mmHg 68%
20:00 -3°C° 0 mm 1 m/s 756 mmHg 72%
21:00 -3°C° 0 mm 1 m/s 756 mmHg 72%
22:00 -5°C° 0 mm 2 m/s 756 mmHg 73%
23:00 -5°C° 0 mm 2 m/s 756 mmHg 74%

Depois de amanhã, 10 Março, Quarta-feira

Tempo Temperatura Precipitação Vento Pressão Humidade
00:00 -6°C° 0 mm 2 m/s 756 mmHg 74%
01:00 -6°C° 0 mm 2 m/s 756 mmHg 75%
02:00 -6°C° 0 mm 2 m/s 756 mmHg 75%
03:00 -6°C° 0 mm 2 m/s 756 mmHg 76%
04:00 -6°C° 0 mm 2 m/s 755 mmHg 76%
05:00 -6°C° 0 mm 2 m/s 755 mmHg 76%
06:00 -6°C° 0 mm 2 m/s 755 mmHg 76%
07:00 -6°C° 0 mm 2 m/s 755 mmHg 76%
08:00 -6°C° 0 mm 2 m/s 756 mmHg 75%
09:00 -4°C° 0 mm 2 m/s 756 mmHg 71%
10:00 -3°C° 0 mm 2 m/s 756 mmHg 67%
11:00 -2°C° 0 mm 2 m/s 756 mmHg 63%
12:00 -2°C° 0 mm 2 m/s 756 mmHg 61%
13:00 -1°C° 0 mm 2 m/s 756 mmHg 59%
14:00 -1°C° 0 mm 2 m/s 755 mmHg 57%
15:00 +1°C° 0 mm 1 m/s 755 mmHg 58%
16:00 +1°C° 0 mm 1 m/s 755 mmHg 60%
17:00 +1°C° 0 mm 1 m/s 755 mmHg 61%
18:00 0°C° 0 mm 1 m/s 755 mmHg 64%
19:00 -3°C° 0 mm 2 m/s 755 mmHg 66%
20:00 -3°C° 0 mm 2 m/s 755 mmHg 68%
21:00 -4°C° 0 mm 2 m/s 755 mmHg 69%
22:00 -4°C° 0 mm 2 m/s 756 mmHg 69%
23:00 -4°C° 0 mm 2 m/s 756 mmHg 70%

11 Março, Quinta-feira

Tempo Temperatura Precipitação Vento Pressão Humidade
00:00 -4°C° 0 mm 2 m/s 756 mmHg 70%
01:00 -4°C° 0 mm 2 m/s 755 mmHg 70%
02:00 -4°C° 0 mm 2 m/s 755 mmHg 70%
03:00 -5°C° 0 mm 2 m/s 755 mmHg 70%
04:00 -5°C° 0 mm 2 m/s 755 mmHg 70%
05:00 -6°C° 0 mm 3 m/s 754 mmHg 70%
06:00 -6°C° 0 mm 3 m/s 754 mmHg 70%
07:00 -6°C° 0 mm 3 m/s 754 mmHg 70%
08:00 -5°C° 0 mm 4 m/s 754 mmHg 70%
09:00 -4°C° 0 mm 4 m/s 753 mmHg 66%
10:00 -4°C° 0 mm 5 m/s 752 mmHg 62%
11:00 -3°C° 0 mm 6 m/s 752 mmHg 58%
12:00 -2°C° 0 mm 6 m/s 751 mmHg 57%
13:00 -2°C° 0 mm 7 m/s 750 mmHg 56%
14:00 -1°C° 0 mm 7 m/s 750 mmHg 54%
15:00 -1°C° 0 mm 7 m/s 749 mmHg 58%
16:00 -2°C° 0 mm 7 m/s 748 mmHg 61%
17:00 -2°C° 0 mm 7 m/s 747 mmHg 65%
18:00 -2°C° 0.3 mm 8 m/s 746 mmHg 75%
19:00 -2°C° 0.3 mm 8 m/s 744 mmHg 85%
20:00 -4°C° 0.3 mm 9 m/s 743 mmHg 95%
21:00 -3°C° 1 mm 9 m/s 742 mmHg 96%
22:00 -2°C° 1 mm 8 m/s 741 mmHg 96%
23:00 -1°C° 1 mm 8 m/s 740 mmHg 96%

12 Março, Sexta-feira

Tempo Temperatura Precipitação Vento Pressão Humidade
00:00 -1°C° 1.2 mm 8 m/s 739 mmHg 96%
01:00 0°C° 1.2 mm 7 m/s 738 mmHg 95%
02:00 +2°C° 1.2 mm 7 m/s 738 mmHg 94%
03:00 +2°C° 0.1 mm 7 m/s 738 mmHg 93%
04:00 +2°C° 0.1 mm 6 m/s 738 mmHg 93%
05:00 +1°C° 0.1 mm 6 m/s 737 mmHg 93%
06:00 +1°C° 0 mm 6 m/s 738 mmHg 92%
07:00 +1°C° 0 mm 6 m/s 738 mmHg 92%
08:00 +1°C° 0 mm 6 m/s 739 mmHg 92%
09:00 +1°C° 0.2 mm 6 m/s 739 mmHg 92%
10:00 0°C° 0.2 mm 7 m/s 739 mmHg 92%
11:00 0°C° 0.2 mm 7 m/s 739 mmHg 92%
12:00 0°C° 0.1 mm 7 m/s 739 mmHg 91%
13:00 0°C° 0.1 mm 7 m/s 740 mmHg 91%
14:00 +2°C° 0.1 mm 7 m/s 740 mmHg 90%
15:00 +2°C° 0.1 mm 7 m/s 740 mmHg 87%
16:00 +2°C° 0.1 mm 6 m/s 741 mmHg 84%
17:00 +2°C° 0.1 mm 5 m/s 741 mmHg 81%
18:00 +1°C° 0.1 mm 6 m/s 741 mmHg 80%
19:00 +1°C° 0.1 mm 6 m/s 742 mmHg 80%
20:00 -1°C° 0.1 mm 6 m/s 742 mmHg 80%
21:00 -1°C° 0 mm 6 m/s 743 mmHg 79%
22:00 -1°C° 0 mm 7 m/s 743 mmHg 79%
23:00 -1°C° 0 mm 7 m/s 743 mmHg 78%

13 Março, Sábado

Tempo Temperatura Precipitação Vento Pressão Humidade
00:00 -1°C° 0 mm 7 m/s 744 mmHg 80%
01:00 -1°C° 0 mm 7 m/s 744 mmHg 81%
02:00 -1°C° 0 mm 7 m/s 744 mmHg 83%
03:00 -2°C° 0 mm 6 m/s 744 mmHg 84%
04:00 -2°C° 0 mm 6 m/s 744 mmHg 86%
05:00 -1°C° 0 mm 5 m/s 745 mmHg 88%
06:00 -1°C° 0 mm 5 m/s 745 mmHg 88%
07:00 -1°C° 0 mm 5 m/s 745 mmHg 89%
08:00 -1°C° 0 mm 5 m/s 746 mmHg 90%
09:00 0°C° 0 mm 5 m/s 746 mmHg 85%
10:00 +2°C° 0 mm 5 m/s 746 mmHg 81%
11:00 +3°C° 0 mm 5 m/s 746 mmHg 76%
12:00 +5°C° 0 mm 5 m/s 746 mmHg 74%
13:00 +5°C° 0 mm 5 m/s 746 mmHg 71%
14:00 +5°C° 0 mm 6 m/s 746 mmHg 69%
15:00 +6°C° 0 mm 5 m/s 745 mmHg 71%
16:00 +5°C° 0 mm 4 m/s 745 mmHg 73%
17:00 +5°C° 0 mm 3 m/s 745 mmHg 75%
18:00 +4°C° 0 mm 3 m/s 745 mmHg 77%
19:00 +3°C° 0 mm 3 m/s 745 mmHg 80%
20:00 +2°C° 0 mm 3 m/s 745 mmHg 82%
21:00 +2°C° 0 mm 3 m/s 745 mmHg 83%
22:00 +1°C° 0 mm 4 m/s 745 mmHg 83%
23:00 +1°C° 0 mm 4 m/s 745 mmHg 84%
Mostrar mais